sat.trackr.live / text

‹ back to catalog

CUTE-1 (CO-55)

NORAD 27844 · 2003-031E

PAYLOAD ACTIVE UNKNOWN

§ Identity

Operator
Country
JPN
Launch date
2003-06-30
Launch site
PLMSC
Launch vehicle
Mass (kg)
RCS (m²)
0.07

Purposes: comms, tech_demo

External: N2YO · Heavens-Above · Gunter

§ Orbital elements

Epoch: 2026-05-24T23:53:49.036416Z

Period
101.10 min
Inclination
98.6739°
Eccentricity
0.0008353
Mean motion
14.24319183 rev/d
Perigee alt
804.8 km
Apogee alt
816.8 km
Semi-major
7,188.9 km
B*
1.1839e-4
RAAN
153.8464°
Arg perigee
250.3425°
Mean anomaly
109.6853°
Rev number
18,837

§ Raw data

CUTE-1 (CO-55)1 27844U 03031E   26144.99570644  .00000230  00000+0  11839-3 0  99922 27844  98.6739 153.8464 0008353 250.3425 109.6853 14.24319183188375

JSON: /api/v1/satellites/27844 · /tle

For live sub-satellite position, see the globe view (requires WebGL).

§ Visibility from observer

Set your observer location to see the next 7 days of passes ≥ 10°. The values pass through the URL so the page stays shareable.

No JS? Fill the form by hand. The geolocation button needs JavaScript.

§ Radio — SatNOGS DB

ModeDescriptionDownlinkUplink
AFSK Mode U TLM 437.470 MHz
CW Mode U TLM 436.838 MHz
CW PE0SAT - CW Beacon 436.836 MHz

3 transmitters · refreshed weekly from db.satnogs.org